Погода в Рамальо

Аргентина     33°29′52″S   60°04′02″W
темп.,
°C
ветер,
м/с
пор.,
м/с
влажн.,
%
обл.,
%
осадки,
мм/ч
давл.,
гПа
погр.,
м
25 февраля, чт
чт2500:00+19св12380 0.0 101423
03:00+18св22450 0.0 101323
06:00+16ссз12520 0.0 101423
09:00+24с23370 0.0 1015257
12:00+34с22180 0.0 10141846
15:00+36всв23140 0.0 10122692
18:00+35всв33150 0.0 10092698
21:00+26в411270 0.0 1011237
26 февраля, пт
пт2600:00+21всв36380 0.0 1012109
03:00+20св39440 0.0 1012192
06:00+20ссв311510 0.0 1012290
09:00+25ссв48410 0.0 1014393
12:00+33св44220 0.0 10131650
15:00+36всв44150 0.0 10112468
18:00+35всв45130 0.0 10092709
21:00+27в413260 0.0 1011344
27 февраля, сб
сб2700:00+23в413350 0.0 1013388
03:00+21всв412580 0.0 1014387
06:00+19всв3107824 0.0 1015286
09:00+23всв476858 0.0 1017450
12:00+32всв46340 0.0 10161390
15:00+35всв56220 0.0 10142267
18:00+35в67190 0.0 10122446
21:00+27в4113717 0.0 1013317
28 февраля, вс
вс2800:00+26в5135495 0.0 1015815
03:00+24всв4126498 0.0 1014781
06:00+22всв41171100 0.0 1016709
09:00+24св596393 0.0 1016656
12:00+31св464251 0.0 10151153
15:00+34всв442762 0.0 10112433
18:00+34всв462214 0.0 10092340
21:00+25вюв411397 0.0 1010249
1 марта, пн
пн100:00+25всв412570 0.0 1010477
03:00+23всв412670 0.0 1010567
06:00+21св310790 0.0 1010398
09:00+25св48640 0.0 1011587
12:00+33св45360 0.0 10101442
15:00+36всв43267 0.0 10072877
18:00+35всв332526 0.0 10052586
21:00+28в4103522 0.0 1007249